Total_Precipitation_Accumulation
0.27 0.29 0.29 0.32 0.30 0.26 0.23 0.23 0.25 0.29 0.32 0.34 0.31 0.30 0.36 0.37 0.52 0.40 0.18 0.08 0.03 0.01 0.00 0.00 0.01 0.00 0.00 0.00 0.00 0.00 0.00 0.01 0.02 0.03 0.06 0.08 0.06 0.04 0.03 0.04 0.03 0.05 0.07 0.12 0.17 0.21 0.27 0.26 0.26 0.29 0.31 0.29 0.31 0.52 0.71 0.80 1.15 1.22 1.59 1.72 1.84 1.75 2.02 2.39 2.24 2.44 2.43 2.23 1.83 1.69 1.46 1.58 1.80 2.04
0.27 0.30 0.32 0.32 0.33 0.29 0.31 0.32 0.28 0.29 0.33 0.38 0.39 0.37 0.34 0.35 0.50 0.41 0.30 0.17 0.05 0.03 0.01 0.00 0.00 0.01 0.00 0.00 0.00 0.01 0.01 0.01 0.02 0.04 0.04 0.05 0.04 0.03 0.02 0.02 0.03 0.02 0.02 0.05 0.10 0.14 0.20 0.26 0.25 0.24 0.22 0.28 0.27 0.31 0.49 0.64 0.98 1.42 1.39 1.60 1.82 1.59 1.59 1.76 2.08 2.07 2.06 2.18 2.13 1.66 1.45 1.42 1.56 1.73
0.28 0.33 0.34 0.32 0.33 0.31 0.33 0.35 0.35 0.37 0.40 0.44 0.41 0.36 0.32 0.33 0.38 0.42 0.37 0.36 0.14 0.03 0.04 0.02 0.00 0.00 0.01 0.01 0.00 0.00 0.01 0.01 0.02 0.03 0.03 0.03 0.03 0.03 0.02 0.02 0.02 0.02 0.01 0.02 0.03 0.09 0.15 0.22 0.28 0.27 0.24 0.23 0.28 0.26 0.31 0.43 0.70 1.04 1.30 1.49 1.66 1.75 1.46 1.66 1.62 1.96 1.90 1.97 2.01 1.84 1.55 1.36 1.37 1.54
0.21 0.26 0.31 0.31 0.32 0.34 0.39 0.42 0.42 0.43 0.44 0.47 0.55 0.53 0.44 0.39 0.34 0.40 0.50 0.48 0.26 0.05 0.02 0.03 0.04 0.03 0.02 0.03 0.02 0.01 0.01 0.01 0.02 0.03 0.03 0.03 0.03 0.03 0.03 0.02 0.02 0.01 0.01 0.01 0.02 0.03 0.08 0.15 0.26 0.27 0.28 0.24 0.25 0.24 0.29 0.30 0.44 0.81 0.92 1.41 1.61 1.77 1.54 1.46 1.55 1.66 1.82 2.01 1.98 1.86 1.67 1.45 1.39 1.52
0.17 0.23 0.27 0.27 0.28 0.33 0.45 0.47 0.45 0.46 0.49 0.53 0.61 0.64 0.62 0.54 0.38 0.39 0.48 0.48 0.30 0.10 0.06 0.04 0.06 0.09 0.11 0.11 0.07 0.03 0.01 0.01 0.02 0.02 0.03 0.03 0.04 0.04 0.03 0.02 0.02 0.01 0.01 0.01 0.01 0.01 0.04 0.08 0.18 0.26 0.34 0.29 0.29 0.26 0.26 0.27 0.28 0.38 0.59 0.85 1.39 1.62 1.78 1.42 1.33 1.48 1.72 1.70 2.01 2.04 2.00 1.67 1.48 1.48
0.12 0.18 0.22 0.21 0.22 0.24 0.36 0.44 0.45 0.43 0.46 0.54 0.64 0.65 0.69 0.65 0.48 0.37 0.52 0.52 0.38 0.21 0.16 0.05 0.08 0.11 0.13 0.19 0.15 0.08 0.03 0.02 0.02 0.02 0.02 0.03 0.03 0.03 0.03 0.02 0.01 0.01 0.01 0.01 0.00 0.02 0.02 0.05 0.09 0.31 0.28 0.32 0.34 0.29 0.27 0.26 0.22 0.30 0.36 0.49 0.96 1.44 1.80 1.70 1.41 1.31 1.37 1.63 1.85 2.04 2.00 1.77 1.58 1.44
0.14 0.16 0.17 0.18 0.19 0.22 0.29 0.29 0.34 0.41 0.50 0.51 0.58 0.61 0.60 0.62 0.51 0.40 0.47 0.61 0.56 0.28 0.12 0.07 0.13 0.15 0.18 0.20 0.20 0.14 0.07 0.03 0.03 0.03 0.03 0.02 0.02 0.02 0.02 0.02 0.01 0.01 0.01 0.01 0.00 0.01 0.01 0.01 0.05 0.10 0.25 0.29 0.32 0.28 0.29 0.30 0.25 0.25 0.25 0.32 0.57 0.91 1.47 1.90 1.67 1.37 1.26 1.30 1.60 1.75 1.84 2.00 1.71 1.62
0.18 0.18 0.20 0.17 0.20 0.24 0.28 0.28 0.29 0.32 0.40 0.52 0.61 0.58 0.56 0.64 0.60 0.47 0.47 0.61 0.64 0.43 0.25 0.14 0.11 0.15 0.21 0.23 0.22 0.19 0.15 0.12 0.08 0.07 0.05 0.03 0.03 0.02 0.02 0.01 0.01 0.01 0.00 0.00 0.00 0.00 0.00 0.00 0.01 0.05 0.15 0.23 0.29 0.30 0.28 0.27 0.26 0.22 0.20 0.32 0.36 0.62 0.93 1.80 1.94 1.70 1.37 1.27 1.32 1.60 1.70 1.83 1.96 1.71
0.20 0.20 0.19 0.20 0.22 0.23 0.24 0.26 0.31 0.30 0.29 0.33 0.42 0.48 0.49 0.56 0.55 0.54 0.61 0.66 0.67 0.61 0.44 0.24 0.15 0.15 0.22 0.28 0.26 0.22 0.23 0.22 0.19 0.15 0.11 0.08 0.06 0.03 0.02 0.02 0.01 0.01 0.01 0.00 0.00 0.00 0.00 0.01 0.00 0.03 0.07 0.16 0.23 0.28 0.27 0.25 0.24 0.23 0.22 0.23 0.31 0.48 0.56 0.87 1.67 1.94 1.71 1.32 1.34 1.34 1.51 1.63 2.10 1.90
0.21 0.23 0.23 0.22 0.24 0.26 0.29 0.31 0.29 0.29 0.33 0.37 0.42 0.47 0.48 0.49 0.53 0.57 0.53 0.56 0.65 0.61 0.43 0.26 0.23 0.25 0.28 0.32 0.33 0.29 0.25 0.26 0.25 0.22 0.18 0.13 0.10 0.08 0.06 0.03 0.02 0.01 0.01 0.01 0.01 0.00 0.00 0.00 0.00 0.00 0.05 0.08 0.17 0.26 0.26 0.25 0.21 0.25 0.22 0.23 0.26 0.43 0.57 0.66 0.85 1.59 1.80 1.65 1.19 1.41 1.44 1.50 1.63 1.83
0.23 0.24 0.27 0.28 0.28 0.32 0.37 0.39 0.43 0.43 0.40 0.41 0.43 0.46 0.57 0.57 0.48 0.44 0.42 0.45 0.52 0.57 0.48 0.35 0.25 0.28 0.27 0.29 0.33 0.32 0.32 0.29 0.26 0.25 0.22 0.19 0.15 0.11 0.09 0.07 0.04 0.02 0.02 0.01 0.01 0.01 0.00 0.00 0.01 0.00 0.02 0.06 0.10 0.20 0.23 0.25 0.23 0.22 0.24 0.30 0.27 0.34 0.49 0.59 0.58 0.85 1.47 1.66 1.75 1.24 1.36 1.60 1.55 1.46
0.22 0.25 0.27 0.28 0.28 0.34 0.43 0.48 0.47 0.46 0.51 0.55 0.67 0.60 0.48 0.46 0.50 0.48 0.44 0.42 0.44 0.47 0.44 0.39 0.32 0.25 0.30 0.34 0.32 0.36 0.51 0.56 0.42 0.28 0.25 0.23 0.17 0.13 0.10 0.08 0.08 0.06 0.05 0.03 0.02 0.02 0.03 0.02 0.01 0.00 0.01 0.01 0.05 0.12 0.21 0.23 0.25 0.23 0.24 0.29 0.32 0.30 0.39 0.36 0.48 0.58 0.84 1.28 1.55 1.64 1.45 1.47 1.47 1.53
0.16 0.17 0.23 0.30 0.35 0.36 0.37 0.38 0.38 0.44 0.55 0.66 0.82 0.55 0.48 0.57 0.61 0.56 0.49 0.46 0.40 0.39 0.37 0.37 0.38 0.42 0.42 0.42 0.45 0.49 0.52 0.57 0.42 0.25 0.22 0.23 0.18 0.15 0.13 0.11 0.11 0.13 0.14 0.10 0.06 0.03 0.03 0.04 0.03 0.03 0.02 0.01 0.02 0.05 0.15 0.21 0.24 0.25 0.24 0.27 0.29 0.34 0.37 0.38 0.40 0.43 0.58 0.78 1.12 1.39 1.60 1.77 1.56 1.57
0.13 0.13 0.14 0.20 0.25 0.30 0.30 0.32 0.36 0.40 0.44 0.61 0.61 0.62 0.69 0.73 0.71 0.62 0.56 0.54 0.47 0.40 0.40 0.36 0.44 0.46 0.43 0.42 0.43 0.43 0.37 0.34 0.35 0.39 0.40 0.36 0.29 0.26 0.23 0.19 0.17 0.16 0.18 0.17 0.15 0.09 0.04 0.03 0.03 0.06 0.03 0.04 0.02 0.03 0.07 0.14 0.20 0.24 0.24 0.26 0.33 0.34 0.28 0.35 0.33 0.38 0.43 0.64 0.74 1.04 1.26 1.64 1.90 1.74
0.12 0.12 0.11 0.12 0.15 0.16 0.15 0.17 0.22 0.28 0.44 0.50 0.43 0.46 0.59 0.68 0.82 0.83 0.70 0.51 0.55 0.54 0.47 0.49 0.60 0.62 0.56 0.50 0.45 0.50 0.51 0.48 0.52 0.43 0.40 0.42 0.47 0.46 0.37 0.32 0.24 0.20 0.20 0.19 0.17 0.13 0.08 0.07 0.04 0.02 0.02 0.16 0.16 0.02 0.03 0.08 0.32 0.25 0.21 0.21 0.25 0.28 0.23 0.27 0.32 0.34 0.41 0.46 0.63 0.76 0.96 1.24 1.49 1.91
0.10 0.09 0.09 0.09 0.10 0.11 0.11 0.13 0.17 0.29 0.39 0.30 0.30 0.35 0.49 0.57 0.61 0.67 0.87 0.75 0.56 0.56 0.57 0.55 0.64 0.77 0.71 0.61 0.53 0.59 0.68 0.64 0.63 0.59 0.54 0.53 0.55 0.52 0.43 0.29 0.24 0.20 0.17 0.19 0.20 0.16 0.13 0.08 0.06 0.04 0.02 0.01 0.01 0.01 0.03 0.03 0.08 0.16 0.23 0.22 0.21 0.25 0.24 0.22 0.30 0.37 0.37 0.42 0.57 0.62 0.75 0.93 1.17 1.43
0.08 0.07 0.07 0.06 0.07 0.09 0.08 0.08 0.20 0.39 0.32 0.21 0.22 0.28 0.40 0.45 0.48 0.52 0.59 0.64 0.63 0.65 0.66 0.59 0.51 0.55 0.66 0.61 0.55 0.64 0.73 0.72 0.71 0.63 0.60 0.52 0.49 0.48 0.43 0.36 0.26 0.25 0.24 0.27 0.31 0.24 0.17 0.13 0.08 0.05 0.02 0.03 0.01 0.00 0.00 0.02 0.04 0.10 0.19 0.26 0.23 0.24 0.21 0.22 0.23 0.35 0.35 0.42 0.52 0.61 0.60 0.74 1.00 1.09
0.07 0.08 0.11 0.12 0.11 0.12 0.10 0.12 0.32 0.40 0.27 0.17 0.17 0.25 0.36 0.39 0.39 0.42 0.48 0.57 0.56 0.57 0.68 0.65 0.60 0.54 0.61 0.62 0.56 0.65 0.74 0.75 0.78 0.62 0.56 0.45 0.45 0.48 0.44 0.41 0.41 0.43 0.47 0.44 0.40 0.32 0.21 0.16 0.12 0.09 0.05 0.03 0.02 0.01 0.00 0.01 0.02 0.05 0.13 0.20 0.25 0.23 0.22 0.22 0.24 0.30 0.35 0.39 0.40 0.54 0.63 0.68 0.82 1.07
0.09 0.08 0.09 0.12 0.14 0.18 0.13 0.18 0.34 0.43 0.29 0.17 0.17 0.23 0.31 0.37 0.38 0.40 0.46 0.53 0.57 0.64 0.66 0.67 0.66 0.61 0.58 0.60 0.54 0.57 0.64 0.71 0.79 0.82 0.64 0.53 0.49 0.57 0.73 0.54 0.49 0.49 0.47 0.44 0.46 0.42 0.24 0.17 0.14 0.11 0.08 0.06 0.04 0.02 0.01 0.01 0.02 0.03 0.07 0.14 0.20 0.23 0.22 0.21 0.24 0.28 0.35 0.38 0.42 0.41 0.50 0.67 0.68 0.93
0.05 0.05 0.08 0.11 0.12 0.20 0.15 0.23 0.32 0.36 0.30 0.16 0.16 0.19 0.24 0.31 0.34 0.38 0.44 0.50 0.57 0.69 0.80 0.80 0.77 0.80 0.73 0.73 0.72 0.70 0.69 0.72 0.79 0.76 0.65 0.62 0.65 0.64 0.63 0.54 0.42 0.38 0.43 0.40 0.39 0.30 0.26 0.22 0.15 0.13 0.12 0.11 0.10 0.07 0.04 0.01 0.01 0.02 0.05 0.09 0.15 0.21 0.22 0.20 0.20 0.22 0.26 0.35 0.42 0.38 0.43 0.56 0.66 0.73
0.05 0.05 0.07 0.11 0.20 0.25 0.20 0.27 0.32 0.32 0.24 0.16 0.18 0.20 0.23 0.29 0.30 0.32 0.36 0.41 0.45 0.51 0.55 0.61 0.64 0.65 0.69 0.69 0.67 0.67 0.65 0.73 0.86 0.95 0.88 0.67 0.51 0.52 0.55 0.45 0.41 0.35 0.38 0.41 0.36 0.25 0.22 0.19 0.18 0.19 0.18 0.15 0.12 0.11 0.09 0.05 0.02 0.02 0.03 0.05 0.09 0.16 0.19 0.21 0.20 0.20 0.22 0.28 0.36 0.42 0.44 0.52 0.58 0.72
0.04 0.04 0.05 0.09 0.27 0.29 0.26 0.24 0.29 0.27 0.36 0.16 0.18 0.19 0.20 0.23 0.25 0.25 0.28 0.33 0.38 0.44 0.48 0.57 0.62 0.65 0.77 0.79 0.66 0.67 0.74 0.77 0.87 0.84 0.77 0.70 0.65 0.62 0.51 0.49 0.39 0.37 0.41 0.49 0.40 0.33 0.22 0.23 0.21 0.21 0.22 0.22 0.19 0.15 0.13 0.11 0.08 0.04 0.04 0.04 0.05 0.08 0.14 0.19 0.20 0.19 0.19 0.24 0.28 0.36 0.47 0.47 0.56 0.69
0.03 0.03 0.04 0.06 0.20 0.25 0.25 0.22 0.25 0.23 0.22 0.17 0.18 0.25 0.26 0.25 0.24 0.25 0.27 0.30 0.33 0.34 0.35 0.44 0.55 0.62 0.72 0.85 0.73 0.67 0.69 0.74 0.74 0.82 0.74 0.59 0.63 0.68 0.60 0.67 0.69 0.63 0.57 0.52 0.56 0.42 0.30 0.32 0.31 0.25 0.30 0.31 0.22 0.17 0.17 0.15 0.14 0.10 0.08 0.06 0.06 0.06 0.10 0.13 0.15 0.21 0.21 0.22 0.27 0.31 0.38 0.47 0.53 0.69
0.03 0.03 0.04 0.04 0.14 0.19 0.17 0.18 0.20 0.20 0.18 0.19 0.20 0.21 0.26 0.32 0.33 0.29 0.25 0.24 0.31 0.33 0.35 0.39 0.45 0.48 0.52 0.79 0.82 0.70 0.65 0.72 0.79 0.77 0.66 0.61 0.60 0.57 0.58 0.73 0.77 0.73 0.57 0.46 0.53 0.48 0.35 0.32 0.36 0.30 0.25 0.23 0.24 0.19 0.17 0.19 0.16 0.15 0.11 0.10 0.09 0.08 0.11 0.10 0.13 0.14 0.20 0.22 0.27 0.30 0.35 0.40 0.53 0.61
0.04 0.04 0.05 0.06 0.12 0.15 0.14 0.14 0.16 0.17 0.14 0.15 0.16 0.22 0.26 0.33 0.28 0.21 0.16 0.15 0.17 0.20 0.23 0.26 0.31 0.33 0.38 0.55 0.68 0.66 0.70 0.69 0.74 0.75 0.65 0.66 0.68 0.70 0.60 0.57 0.54 0.54 0.51 0.48 0.45 0.45 0.48 0.50 0.52 0.45 0.31 0.28 0.25 0.18 0.16 0.15 0.17 0.17 0.16 0.13 0.12 0.10 0.12 0.11 0.12 0.16 0.17 0.22 0.26 0.31 0.34 0.38 0.46 0.56
0.05 0.06 0.08 0.09 0.12 0.13 0.11 0.12 0.12 0.13 0.13 0.12 0.14 0.16 0.16 0.13 0.12 0.09 0.09 0.09 0.10 0.12 0.14 0.17 0.19 0.22 0.26 0.35 0.45 0.48 0.57 0.65 0.66 0.70 0.65 0.63 0.67 0.73 0.76 0.71 0.66 0.56 0.52 0.43 0.44 0.49 0.46 0.52 0.42 0.48 0.37 0.29 0.24 0.22 0.22 0.20 0.21 0.20 0.19 0.17 0.14 0.11 0.11 0.13 0.13 0.14 0.15 0.18 0.23 0.29 0.33 0.37 0.41 0.49
0.06 0.07 0.09 0.09 0.10 0.11 0.10 0.09 0.08 0.09 0.11 0.09 0.12 0.10 0.08 0.06 0.04 0.05 0.06 0.06 0.07 0.07 0.08 0.12 0.15 0.15 0.16 0.22 0.31 0.36 0.41 0.49 0.58 0.65 0.69 0.61 0.67 0.76 0.75 0.71 0.80 0.78 0.69 0.62 0.55 0.55 0.54 0.53 0.49 0.57 0.43 0.27 0.25 0.28 0.25 0.24 0.22 0.25 0.23 0.21 0.19 0.16 0.24 0.17 0.15 0.15 0.13 0.14 0.16 0.27 0.35 0.40 0.39 0.45
0.06 0.09 0.10 0.10 0.08 0.09 0.08 0.07 0.06 0.05 0.07 0.09 0.08 0.06 0.04 0.02 0.02 0.04 0.03 0.05 0.06 0.06 0.07 0.08 0.11 0.11 0.12 0.15 0.19 0.25 0.34 0.49 0.58 0.57 0.53 0.55 0.69 0.66 0.69 0.73 0.63 0.63 0.64 0.67 0.62 0.62 0.60 0.57 0.47 0.39 0.43 0.38 0.34 0.33 0.25 0.22 0.22 0.22 0.23 0.22 0.20 0.19 0.19 0.16 0.15 0.17 0.18 0.14 0.15 0.19 0.29 0.41 0.40 0.45
0.06 0.08 0.08 0.08 0.07 0.06 0.06 0.04 0.04 0.03 0.04 0.05 0.05 0.04 0.02 0.01 0.02 0.03 0.04 0.05 0.05 0.04 0.05 0.05 0.06 0.08 0.09 0.12 0.15 0.19 0.24 0.36 0.51 0.59 0.55 0.51 0.56 0.54 0.61 0.70 0.63 0.57 0.70 0.70 0.78 0.80 0.65 0.60 0.55 0.48 0.45 0.33 0.37 0.33 0.26 0.23 0.23 0.29 0.27 0.28 0.29 0.25 0.20 0.16 0.15 0.15 0.18 0.22 0.21 0.19 0.23 0.34 0.44 0.43
0.04 0.05 0.05 0.06 0.06 0.05 0.06 0.04 0.04 0.04 0.04 0.03 0.03 0.02 0.02 0.02 0.02 0.03 0.04 0.04 0.05 0.06 0.04 0.04 0.04 0.05 0.05 0.06 0.09 0.12 0.20 0.26 0.34 0.46 0.53 0.51 0.46 0.51 0.56 0.60 0.58 0.58 0.57 0.62 0.72 0.87 0.73 0.67 0.64 0.62 0.53 0.44 0.35 0.32 0.29 0.33 0.37 0.31 0.32 0.29 0.25 0.34 0.44 0.32 0.27 0.18 0.16 0.18 0.18 0.17 0.18 0.22 0.35 0.44
0.02 0.03 0.04 0.05 0.06 0.06 0.06 0.05 0.05 0.04 0.04 0.04 0.03 0.03 0.03 0.03 0.03 0.04 0.04 0.04 0.05 0.05 0.05 0.04 0.04 0.03 0.03 0.05 0.06 0.09 0.16 0.24 0.28 0.33 0.42 0.48 0.46 0.44 0.48 0.56 0.56 0.55 0.60 0.58 0.65 0.71 0.75 0.70 0.69 0.73 0.65 0.55 0.53 0.40 0.34 0.37 0.43 0.40 0.47 0.41 0.36 0.39 0.38 0.32 0.24 0.20 0.19 0.18 0.19 0.20 0.19 0.24 0.26 0.40
0.02 0.02 0.03 0.03 0.04 0.04 0.05 0.05 0.05 0.05 0.05 0.05 0.05 0.04 0.05 0.05 0.05 0.04 0.04 0.04 0.04 0.04 0.03 0.03 0.02 0.02 0.03 0.04 0.05 0.07 0.10 0.15 0.21 0.27 0.33 0.42 0.46 0.46 0.45 0.49 0.56 0.55 0.55 0.53 0.52 0.58 0.61 0.70 0.75 0.88 0.75 0.56 0.64 0.57 0.47 0.50 0.52 0.45 0.47 0.55 0.51 0.39 0.29 0.42 0.39 0.35 0.27 0.23 0.26 0.27 0.28 0.26 0.26 0.32
0.03 0.03 0.03 0.03 0.04 0.05 0.06 0.06 0.06 0.06 0.07 0.07 0.07 0.07 0.08 0.07 0.08 0.08 0.08 0.09 0.08 0.07 0.06 0.06 0.06 0.05 0.04 0.04 0.03 0.04 0.07 0.09 0.12 0.18 0.25 0.31 0.42 0.48 0.49 0.53 0.49 0.50 0.51 0.54 0.59 0.58 0.63 0.64 0.63 0.95 0.93 0.62 0.60 0.61 0.58 0.63 0.67 0.57 0.50 0.55 0.54 0.49 0.42 0.37 0.35 0.33 0.35 0.36 0.33 0.30 0.31 0.28 0.25 0.24
0.04 0.04 0.04 0.04 0.04 0.05 0.06 0.06 0.07 0.07 0.08 0.08 0.08 0.08 0.09 0.10 0.12 0.13 0.14 0.15 0.14 0.13 0.13 0.12 0.12 0.12 0.11 0.11 0.09 0.08 0.08 0.07 0.08 0.11 0.18 0.25 0.31 0.40 0.50 0.51 0.45 0.41 0.43 0.46 0.48 0.54 0.60 0.62 0.53 0.58 0.74 0.74 0.66 0.64 0.64 0.64 0.66 0.63 0.63 0.63 0.59 0.52 0.46 0.43 0.42 0.42 0.43 0.39 0.37 0.39 0.37 0.35 0.30 0.26
0.03 0.03 0.03 0.04 0.04 0.05 0.06 0.08 0.10 0.10 0.10 0.11 0.11 0.11 0.10 0.11 0.12 0.13 0.16 0.18 0.19 0.19 0.18 0.16 0.14 0.12 0.12 0.11 0.10 0.10 0.09 0.08 0.08 0.09 0.12 0.17 0.27 0.36 0.39 0.42 0.37 0.36 0.39 0.42 0.43 0.45 0.51 0.61 0.68 0.75 0.77 0.83 0.84 0.85 0.64 0.62 0.60 0.68 0.64 0.63 0.63 0.60 0.54 0.52 0.48 0.45 0.45 0.42 0.39 0.40 0.37 0.33 0.34 0.31
0.03 0.04 0.05 0.06 0.06 0.07 0.08 0.09 0.10 0.12 0.14 0.15 0.15 0.14 0.12 0.11 0.11 0.13 0.14 0.14 0.14 0.14 0.15 0.16 0.16 0.16 0.16 0.15 0.15 0.14 0.13 0.12 0.11 0.11 0.13 0.16 0.22 0.25 0.29 0.30 0.29 0.29 0.31 0.35 0.39 0.45 0.49 0.50 0.60 0.73 0.81 0.92 0.83 0.83 0.74 0.64 0.56 0.60 0.64 0.66 0.61 0.59 0.58 0.58 0.54 0.51 0.47 0.43 0.40 0.37 0.39 0.41 0.36 0.34
0.04 0.05 0.06 0.08 0.08 0.09 0.11 0.12 0.14 0.15 0.16 0.16 0.15 0.15 0.16 0.16 0.14 0.15 0.14 0.13 0.13 0.13 0.13 0.12 0.12 0.12 0.13 0.13 0.14 0.14 0.15 0.19 0.21 0.17 0.16 0.13 0.14 0.18 0.22 0.23 0.22 0.24 0.28 0.28 0.30 0.36 0.48 0.51 0.54 0.63 0.67 0.68 0.71 0.71 0.69 0.54 0.47 0.48 0.58 0.59 0.55 0.55 0.55 0.59 0.63 0.60 0.56 0.47 0.42 0.36 0.27 0.21 0.23 0.28
0.06 0.07 0.08 0.09 0.10 0.11 0.12 0.14 0.15 0.15 0.15 0.16 0.17 0.17 0.17 0.17 0.16 0.14 0.13 0.14 0.14 0.13 0.12 0.12 0.12 0.12 0.12 0.12 0.15 0.16 0.15 0.16 0.17 0.20 0.19 0.19 0.20 0.21 0.22 0.25 0.26 0.22 0.22 0.25 0.28 0.28 0.35 0.41 0.50 0.57 0.65 0.71 0.64 0.55 0.49 0.48 0.44 0.45 0.45 0.58 0.61 0.60 0.53 0.54 0.58 0.58 0.56 0.54 0.51 0.45 0.35 0.30 0.26 0.26
0.09 0.10 0.11 0.12 0.12 0.13 0.14 0.15 0.17 0.17 0.17 0.17 0.17 0.17 0.16 0.13 0.12 0.11 0.11 0.12 0.11 0.11 0.11 0.11 0.11 0.11 0.11 0.11 0.12 0.14 0.15 0.15 0.17 0.18 0.17 0.18 0.18 0.18 0.21 0.22 0.23 0.25 0.25 0.26 0.24 0.29 0.35 0.38 0.45 0.51 0.54 0.56 0.57 0.54 0.49 0.46 0.43 0.45 0.48 0.50 0.56 0.54 0.56 0.56 0.53 0.51 0.54 0.60 0.58 0.55 0.54 0.47 0.37 0.41
0.10 0.10 0.11 0.12 0.13 0.13 0.14 0.15 0.15 0.16 0.17 0.17 0.17 0.18 0.18 0.16 0.14 0.15 0.15 0.15 0.14 0.13 0.14 0.15 0.14 0.14 0.14 0.13 0.12 0.12 0.12 0.13 0.14 0.13 0.14 0.15 0.17 0.17 0.16 0.16 0.17 0.20 0.30 0.30 0.30 0.28 0.31 0.36 0.36 0.43 0.42 0.41 0.43 0.48 0.47 0.45 0.46 0.43 0.47 0.55 0.51 0.50 0.65 0.63 0.55 0.55 0.53 0.49 0.55 0.60 0.65 0.61 0.66 0.70
0.10 0.10 0.11 0.11 0.12 0.12 0.13 0.14 0.15 0.15 0.15 0.15 0.15 0.16 0.16 0.17 0.17 0.19 0.20 0.20 0.19 0.19 0.18 0.17 0.17 0.18 0.17 0.17 0.17 0.18 0.17 0.14 0.13 0.13 0.12 0.12 0.14 0.17 0.17 0.17 0.21 0.19 0.22 0.27 0.26 0.27 0.27 0.24 0.25 0.26 0.33 0.37 0.36 0.44 0.62 0.59 0.59 0.59 0.55 0.56 0.57 0.54 0.54 0.66 0.67 0.65 0.63 0.61 0.58 0.61 0.63 0.66 0.64 0.64
0.09 0.10 0.10 0.10 0.11 0.12 0.13 0.14 0.13 0.14 0.14 0.14 0.15 0.16 0.16 0.16 0.16 0.18 0.17 0.17 0.17 0.18 0.19 0.20 0.20 0.20 0.19 0.18 0.17 0.17 0.19 0.18 0.17 0.16 0.15 0.15 0.14 0.14 0.15 0.19 0.24 0.23 0.21 0.20 0.18 0.16 0.14 0.15 0.21 0.23 0.36 0.61 0.53 0.61 0.68 0.62 0.57 0.53 0.53 0.54 0.58 0.57 0.58 0.61 0.61 0.67 0.78 0.78 0.71 0.69 0.71 0.73 0.68 0.67
0.08 0.08 0.08 0.09 0.09 0.11 0.12 0.13 0.13 0.14 0.15 0.16 0.17 0.18 0.18 0.17 0.17 0.17 0.17 0.18 0.19 0.21 0.22 0.21 0.21 0.21 0.20 0.19 0.19 0.20 0.20 0.20 0.19 0.18 0.17 0.16 0.17 0.18 0.18 0.17 0.16 0.15 0.15 0.13 0.10 0.10 0.14 0.16 0.19 0.27 0.35 0.44 0.52 0.54 0.54 0.47 0.44 0.42 0.45 0.48 0.53 0.59 0.63 0.62 0.64 0.66 0.66 0.65 0.63 0.66 0.71 0.69 0.66 0.64
0.07 0.07 0.07 0.07 0.09 0.10 0.11 0.12 0.13 0.14 0.16 0.18 0.20 0.20 0.20 0.20 0.20 0.21 0.22 0.23 0.25 0.27 0.26 0.26 0.25 0.24 0.23 0.23 0.22 0.22 0.22 0.23 0.22 0.22 0.20 0.18 0.17 0.17 0.16 0.16 0.17 0.17 0.19 0.20 0.21 0.23 0.21 0.23 0.24 0.27 0.36 0.38 0.33 0.39 0.43 0.41 0.41 0.41 0.45 0.47 0.57 0.55 0.60 0.70 0.73 0.70 0.69 0.67 0.68 0.59 0.56 0.52 0.52 0.43
0.07 0.07 0.07 0.07 0.08 0.09 0.10 0.11 0.12 0.14 0.16 0.18 0.19 0.19 0.18 0.18 0.19 0.21 0.21 0.22 0.25 0.26 0.26 0.27 0.27 0.27 0.26 0.27 0.28 0.27 0.25 0.24 0.23 0.22 0.22 0.21 0.21 0.20 0.19 0.19 0.20 0.22 0.23 0.20 0.21 0.22 0.22 0.24 0.26 0.26 0.29 0.27 0.26 0.26 0.26 0.30 0.33 0.40 0.43 0.46 0.49 0.48 0.51 0.62 0.78 0.80 0.82 0.84 0.72 0.62 0.54 0.48 0.41 0.35